Location: Igri�s
(42.2144°N, 0.4320°W)
Time: 14:27:52
(UTC+00:00)

Cosmos 2322 Rocket - Pass Details

Date: 13 August 2020
Orbit: 831 x 852 km, 71.0° (Epoch: 24 September)

Event Time Altitude Azimuth Distance (km) Brightness Sun altitude
Rises 22:26:04 0° 329° (NNW) 3,421 6.6 -28.9°
Reaches altitude 10° 22:28:38 10° 322° (NW) 2,483 5.5 -29.2°
Enters shadow 22:33:52 41° 256° (WSW) 1,219 3.0 -29.6°
